7 * 24
多渠道服务支持
ONEWEB-0136是英国主导的OneWeb星座下的低轨互联网通信卫星,于2020年12月18日发射,属于OneWeb破产重组后的首批组网卫星之一。该卫星运行在近地轨道,依托OneWeb“弯管式”架构,为全球偏远地区提供高速低延迟的宽带互联网接入服务,是英国推进太空战略、构建全球卫星网络的重要组成部分,助力OneWeb完成第一代星座组网部署。
英国
(GB)
| 数据来源 | 国际轨道数据 |
| 星历时间: | 2026-09-11T01:30:44+0800 17小时前 查看轨道信息 |
| 半长轴: | 7591.858km |
| 偏心率: | 0.0001791 |
| 轨道倾角: | 87.900° |
| 近地点辐角 | 91.489° |
| 升交点赤经 | 333.668° |
| 平近点角 | 268.644° |
| 近地点: | 1212.361km |
| 远地点: | 1215.081km |
| 周期: | 109.719分钟 |
| 每日圈数: | 13.124437 |